User: anonymous   Login
Location: Caltech
(34.1382°N, 118.1253°W)
Time: 13:04:14
(UTC-08:00)
Language:

Cosmos 1508 Rocket - Orbit

View from above orbital plane
View from above orbital plane
View from above satellite
View from above satellite

Ground track
Ground track

The orbit data is extracted from the following two-line orbital elements,

1 14484U 83111B   14326.47715043  .00067005  00000-0  77191-3 0  7075
2 14484 082.8335 174.8289 0176336 062.5476 012.9937 15.45040914596876
Epoch (UTC): 22 November 2014 11:27:05
Eccentricity: 0.0176336
inclination: 82.8335°
perigee height: 311 km
apogee height: 551 km
right ascension of ascending node: 174.8289°
argument of perigee: 62.5476°
revolutions per day: 15.45040914
mean anomaly at epoch: 12.9937°
orbit number at epoch: 59687

The dashed part of the orbit path shows where the satellite is in the earth's shadow,  

DLR